CZ-6A DEB, 56631

Orbit data source: Space-Track

CZ-6A DEB, 56631 is space debris in SSO originally from a launch on Fri, 11 Nov 2022 UTC launched from the Taiyaun Space Center, China (TSC). Debris objects in space refer to the collection of defunct objects orbiting the Earth. Examples of debris include non-operational satellites, rocket bodies, and fragments generated from explosions, collisions, or faulty payload assembly.

Loading next visibility...
Identifier
56631, 2022-151AFF
Orbit
SSO
Country
Flag of CNCN / PRC
Related business
Manufacturer
SAST
Mission
Spacecraft
Bus & Motor
Unknown
Mass
Unknown
Launch date (UTC)
2022-11-11 (3 years ago)
Launch vehicle
Unknown
Launch site
Taiyaun Space Center, China (TSC)
Object type
Payload
Rocket body
Debris
Shape & HBR
Unknown shape, 0.1 m
Radar Cross Section
Small (<0.1 m²)

Expand to show TLE details & history
Last TLE update: 2 days ago

TLE from 2 days ago
0 CZ-6A DEB
1 56631U 22151AFF 25349.12078084  .00028988  00000-0  25519-2 0  9994
2 56631  98.6346  54.5042 0045666  86.6291 274.0149 14.95630962140803
Epoch: 2025-12-15T02:53Z
TLE epoch observation values (Epoch: 2025-12-15T02:53:55.464Z)
Latitude
-0.00008°
Longitude
-73.00079°
Altitude
581.354 km
Speed
7.571 km/s
True Right ascension
03h 38m 01s
True Declination
0° 00' 00"
Sunlit
Object was in full shadow at epoch
Visualization orbit readout
Latitude
Unknown
Longitude
Unknown
Altitude
Unknown
Speed
Unknown
Apparent Right ascension
Unknown
Apparent Declination
Unknown
Sunlit
N/A
Visualization observer readout
Local Sidereal Time
21:34:45
Azimuth
Unknown
Elevation
Unknown
Doppler factor
Unknown
Orbital elements
Apogee altitude
609.233 km
Perigee altitude
545.706 km
Semi-major axis
6,955.607 km
Eccentricity
0.00457
Inclination
98.6346°
RAAN
54.5042°
Arg. of periapsis
86.6291°
True anomaly
273.49269°
Mean anomaly
274.0149°
Eccentric anomaly
273.75381°
Mean motion
3.74146 °/min
Orbital period
96.22 mins
BSTAR
0.0025519
Loading maneuver chart data...
Computing Atmospheric mass density...
Loading historical data...
Loading historical data...
Loading historical data...
Loading historical data...
Loading historical data...
Loading historical data...
Loading historical data...

Documentation

Showing up to 5 results
|